Warning: Javascript must be enabled to use all the features on this page!


Page Loading - Please Wait...

* We've detected you're using a mobile device. Find our Next Generation Station Page here.
Click to hideNews Bulletins

Peak Streamflow for Idaho

Click to hide state-specific text

USGS 13139510 BIG WOOD RIVER AT HAILEY ID TOTAL FLOW

Blaine County, Idaho
Hydrologic Unit Code 17040219
Latitude  43°31'02", Longitude 114°19'18" NAD83
Drainage area 614  square miles
Gage datum 5,298.73 feet above NAVD88
Output formats
Table
Graph
Tab-separated file
peakfq (watstore) format
Reselect output format
Water
Year
Date Gage
Height
(feet)
Stream-
flow
(cfs)
1915 1915-06-25   1,0401
1916 1916-06-19   3,2701
1917 1917-06-17   3,5801
1918 1918-06-13   2,7001
1919 1919-05-29   1,9201
1920 1920-06-08   1,1801
1921 1921-06-12   3,9101
1922 1922-06-14   3,5901
1923 1923-06-13   2,6601
1924 1924-05-17   8091
1925 1925-05-20   2,8001
1926 1926-04-30   1,0301
1927 1927-06-13   3,1901
1928 1928-05-26   2,2701
1929 1929-06-16   1,1601
1930 1930-06-11   1,6901
1931 1931-05-14   6361
1932 1932-06-16   2,5201
1933 1933-06-16   2,0001
1934 1934-05-08   5751
1935 1935-06-09   2,1601
1936 1936-05-15   2,100
1937 1937-05-28   1,050
1938 1938-06-07   4,660
1939 1939-05-05   974
1940 1940-05-13   1,960
1941 1941-05-27   2,010
1942 1942-06-08   2,790
1943 1943-05-30   3,720
1944 1944-05-15   1,710
1945 1945-06-24   1,880
1946 1946-04-27   2,160
1947 1947-05-09   2,350
1948 1948-06-03   2,950
1949 1949-05-20   1,750
1950 1950-06-07   1,920
1951 1951-05-28   3,000
1952 1952-05-04   3,840
1953 1953-06-19   2,520
1954 1954-06-27   3,100
1955 1955-06-12   1,890
1956 1956-05-24   4,730
1957 1957-06-05   3,980
1958 1958-05-25   4,5201
1959 1959-06-14   1,4501
1960 1960-05-13   1,5601
1961 1961-06-09   1,1201
1962 1962-06-21   1,9101
1963 1963-05-25   2,2201
1964 1964-06-07   1,8001
1965 1965-06-12   4,0501
1966 1966-05-09   1,1901
1967 1967-05-24   4,2801
1968 1968-06-20   1,3301
1969 1969-05-26   4,0401
1970 1970-05-27   2,2501
1971 1971-06-22   3,2301
1972 1972-06-10   4,4001
1973 1973-05-19   1,6501
1974 1974-06-16 7.20 4,9705
1975 1975-06-07 6.44 3,6205
1976 1976-05-15 4.78 2,1105
1977 1977-06-10 3.62 1,2605
1978 1978-06-10 5.39 2,7605
1979 1979-05-27 4.43 1,8405
1980 1980-05-23 5.50 2,6505
1981 1981-06-09   2,2901,5
1982 1982-06-18 6.94 4,4405
1983 1983-05-30 7.93 6,1505
1984 1984-05-31 6.10 3,7205
1985 1985-05-26 3.702 1,3905
1986 1986-05-30 6.82 5,3005
1987 1987-05-17 3.38 1,4505
1988 1988-06-05 3.28 1,4405
1989 1989-05-10 3.87 1,8505
1990 1990-06-10 3.46 1,5205
1991 1991-06-12   1,8901,5
1992 1992-05-09 2.35 8395
1993 1993-05-21 5.25 3,2505
1994 1994-06-01 2.73 1,1205
1995 1995-06-06 6.02 4,1705
1996 1996-06-10 5.82 3,7905
1997 1997-06-05 6.60 4,7905
1998 1998-07-04 4.77 2,6305
1999 1999-06-19 5.71 3,3605
2000 2000-05-25 4.03 1,9405
2001 2001-05-26 2.64 9255
2002 2002-06-01 3.97 1,8805
2003 2003-05-31 6.17 4,2205
2004 2004-06-06 3.39 1,1505
2005 2005-05-20 5.96 4,1005
2006 2006-05-21 7.92 7,8805
2007 2007-05-13 3.18 1,1105
2008 2008-05-20 4.78 2,4205
2009 2009-06-05 4.69 2,4805
2010 2010-06-07 4.96 2,7805
2011 2011-06-24 5.06 2,9005
2012 2012-04-27 5.61 3,6005
2013 2013-05-15 3.77 1,4605
2014 2014-05-28 3.63 1,3705
2015 2015-06-09 3.492 1,3905
2016 2016-06-09 4.31 2,0205
2017 2017-05-07 8.36 6,2705
2018 2018-05-26 5.12 2,2905
2019 2019-06-07 5.90 3,4805
2020 2020-05-31 4.01 1,5205
?
  Peak Gage-Height Qualification Codes.
?
  Peak Streamflow Qualification Codes.